Temp
62 62 62 61 62 62 62 62 62 62 62 62 62 62 62 62 61 64 69 82 78 78 81 82 83 83 84 79 80 78 71 72 72 71 75 81 77 82 84 78 79 80 79 81 80
62 62 61 61 61 62 62 62 62 62 62 62 61 61 61 62 61 65 80 78 78 79 82 79 77 80 77 77 78 74 72 73 80 81 79 81 81 79 78 77 77 77 81 80 79
62 61 61 61 61 61 61 61 61 61 61 61 61 61 61 62 65 80 81 78 78 82 86 85 83 81 75 77 76 74 71 77 82 84 84 82 81 84 78 74 79 75 75 77 78
61 61 60 61 61 61 61 61 61 61 61 61 61 61 61 60 69 83 79 78 79 87 84 82 80 75 73 72 77 70 76 79 83 86 83 81 84 80 80 81 87 82 80 78 77
60 60 60 60 60 60 60 60 60 60 60 60 61 61 60 63 71 84 79 80 82 84 82 80 75 76 73 75 75 72 77 80 83 85 85 86 82 81 80 85 86 82 79 78 79
60 60 59 59 60 60 60 60 59 59 60 60 61 61 59 62 85 85 82 81 82 82 82 82 79 81 78 77 76 80 79 81 85 86 86 82 82 82 84 83 80 79 78 79 79
59 59 59 59 59 59 59 59 58 59 60 60 61 60 57 71 84 82 82 82 84 84 79 85 84 81 81 77 83 81 76 82 84 85 84 85 75 77 83 82 78 78 78 79 80
59 59 59 59 59 59 58 57 59 62 61 61 62 61 63 78 81 79 81 79 82 87 86 87 86 84 80 82 80 77 78 73 82 83 85 84 75 82 85 80 77 77 78 78 79
58 58 58 58 58 57 57 57 60 64 64 63 59 58 66 76 75 83 84 79 79 82 86 87 85 79 79 73 72 73 71 71 77 84 81 81 77 86 85 82 78 78 78 78 79
58 57 57 57 57 56 56 58 61 64 64 66 64 58 70 74 78 78 83 82 76 78 79 79 77 73 73 71 62 67 68 72 73 80 81 78 79 82 84 82 80 79 79 79 79
57 57 57 57 56 55 57 65 63 61 60 63 64 64 70 80 83 77 82 81 80 76 68 75 69 64 69 72 74 73 71 72 78 82 80 78 79 84 83 83 81 80 79 80 80
57 57 57 56 55 55 60 60 55 56 48 63 60 64 70 73 72 76 84 75 73 67 71 67 64 73 74 72 71 71 70 72 77 79 78 78 78 82 82 81 82 81 79 80 82
57 56 56 55 54 57 55 57 61 59 49 60 63 65 69 72 68 74 80 78 72 69 68 67 72 75 71 69 68 70 69 72 72 76 79 76 75 76 79 82 83 84 83 83 82
57 56 55 54 56 54 58 58 60 58 50 60 62 68 70 73 67 80 82 80 74 69 70 70 77 71 70 68 70 65 74 74 72 70 67 78 66 71 78 76 79 82 82 84 84
56 56 54 53 51 52 59 60 60 55 47 66 65 78 73 71 73 71 83 79 73 72 71 68 70 68 67 69 73 69 76 73 73 71 71 71 67 75 74 73 77 81 83 85 87
56 55 54 54 52 55 58 57 57 51 44 62 67 66 64 69 71 72 74 82 81 73 75 75 77 75 73 75 75 78 74 72 71 71 60 69 68 71 74 75 80 82 84 85 87
54 53 53 56 54 61 57 56 50 43 61 55 57 61 61 62 66 68 67 68 68 62 63 70 70 76 78 71 75 75 70 59 57 57 57 74 67 70 81 83 87 84 84 86 87
52 51 53 56 59 56 56 53 40 50 49 58 58 59 57 60 62 63 65 64 73 73 68 62 58 71 76 74 69 70 71 62 52 57 63 69 62 71 83 88 88 90 90 89 87
51 54 55 59 60 57 53 42 44 46 49 48 55 52 53 57 57 59 62 65 71 73 66 63 64 75 76 78 77 69 65 76 66 61 61 68 72 78 81 84 86 86 87 88 88
50 48 53 59 58 57 49 39 43 50 50 52 45 51 47 51 54 56 58 56 61 62 64 68 61 73 75 79 78 73 77 62 66 54 53 63 64 70 75 79 84 86 86 88 90
49 47 59 59 58 53 41 40 44 51 51 49 47 47 49 48 52 52 51 55 58 59 62 63 65 64 73 70 69 68 68 70 71 66 59 59 66 78 78 82 83 86 88 91 91
45 43 58 57 46 45 41 42 46 48 51 49 51 51 49 50 50 50 49 52 60 60 54 58 63 62 65 77 81 76 71 71 62 57 64 66 68 81 83 85 87 88 91 92 92
39 42 56 58 36 38 42 42 47 46 45 45 45 49 51 49 46 50 51 57 59 59 54 59 56 57 61 69 72 70 74 74 74 73 61 59 66 84 81 82 85 85 87 87 85
44 40 48 49 46 38 36 39 40 49 44 44 42 48 46 47 50 46 49 54 57 59 58 59 55 56 59 61 60 58 66 72 72 65 65 65 70 77 81 81 83 84 86 87 85
44 41 42 37 41 40 41 39 38 39 45 45 36 37 37 39 44 45 48 50 55 55 57 56 50 52 55 56 57 57 59 62 63 68 65 69 70 75 79 82 84 88 86 84 84
41 40 41 37 39 40 41 39 37 40 41 40 38 38 37 36 40 40 44 46 46 53 52 54 50 51 51 57 58 56 60 61 62 64 65 68 68 80 84 84 85 86 87 84 84
48 48 40 39 38 38 40 40 40 43 44 44 39 39 37 40 47 50 52 52 51 47 47 48 50 48 46 54 55 52 60 62 64 68 68 62 71 79 78 79 80 82 85 84 86
MSLP
1018.86 1018.40 1017.93 1017.45 1016.95 1016.48 1016.04 1015.59 1015.11 1014.73 1014.38 1013.98 1013.64 1013.30 1012.96 1012.44 1011.83 1011.49 1009.78 1007.02 1007.34 1007.70 1008.18 1008.77 1008.93 1009.05 1009.29 1009.28 1009.40 1009.46 1008.45 1007.06 1006.58 1006.42 1006.17 1006.75 1007.17 1008.19 1008.61 1009.29 1009.99 1010.53 1010.93 1011.68 1013.16
1018.86 1018.40 1017.90 1017.37 1016.80 1016.25 1015.81 1015.41 1014.94 1014.49 1014.13 1013.79 1013.49 1013.20 1012.87 1012.43 1011.49 1009.31 1006.01 1006.13 1006.60 1007.04 1007.67 1007.77 1008.15 1008.65 1008.87 1008.90 1008.97 1008.78 1007.92 1006.69 1006.14 1005.79 1005.73 1006.40 1006.68 1007.49 1008.35 1009.10 1009.78 1010.54 1011.24 1012.21 1013.25
1018.87 1018.38 1017.86 1017.26 1016.64 1016.03 1015.48 1015.00 1014.55 1014.12 1013.77 1013.51 1013.28 1013.04 1012.78 1012.42 1010.72 1005.96 1004.82 1005.43 1006.04 1006.21 1006.87 1007.51 1008.06 1008.30 1008.39 1008.62 1008.42 1008.14 1007.24 1006.44 1005.67 1005.32 1005.47 1005.91 1006.60 1007.13 1007.77 1008.58 1008.89 1009.87 1011.13 1012.23 1013.01
1018.93 1018.39 1017.78 1017.21 1016.54 1015.83 1015.16 1014.53 1014.01 1013.61 1013.32 1013.12 1013.03 1012.87 1012.59 1012.25 1008.89 1005.17 1004.64 1005.22 1005.97 1006.30 1006.75 1007.35 1007.90 1007.93 1007.91 1007.80 1007.73 1007.70 1006.89 1006.22 1005.37 1004.99 1005.35 1005.57 1006.11 1006.77 1007.34 1007.43 1008.21 1009.76 1010.73 1011.59 1012.58
1018.89 1018.33 1017.71 1017.04 1016.33 1015.57 1014.82 1014.12 1013.51 1012.97 1012.70 1012.65 1012.63 1012.68 1012.41 1010.99 1007.06 1005.16 1005.19 1005.72 1006.29 1006.33 1006.22 1006.59 1007.16 1007.23 1007.09 1007.16 1007.22 1006.99 1006.51 1005.97 1005.44 1004.95 1004.93 1005.26 1005.47 1006.15 1007.09 1007.61 1008.18 1009.55 1010.89 1011.55 1012.17
1018.85 1018.19 1017.53 1016.82 1015.95 1015.13 1014.34 1013.59 1012.81 1012.12 1011.74 1011.93 1012.21 1012.48 1012.02 1009.14 1004.95 1004.93 1005.18 1005.58 1005.51 1006.11 1006.21 1006.40 1006.46 1006.71 1006.78 1006.53 1006.38 1005.96 1005.84 1005.48 1004.93 1004.58 1004.71 1004.77 1005.15 1006.02 1006.44 1007.80 1008.54 1009.49 1010.45 1011.37 1011.83
1018.69 1018.02 1017.33 1016.57 1015.57 1014.50 1013.61 1012.86 1011.91 1010.84 1010.48 1010.90 1011.51 1011.97 1010.79 1006.06 1004.74 1004.76 1005.02 1004.88 1005.06 1005.08 1005.62 1005.84 1006.30 1006.44 1006.32 1006.05 1005.86 1005.67 1005.24 1004.82 1004.07 1003.98 1004.05 1004.60 1005.16 1005.06 1006.23 1007.31 1008.45 1009.23 1010.38 1010.95 1011.56
1018.49 1017.68 1016.91 1016.21 1015.21 1013.98 1013.14 1012.24 1010.98 1009.70 1009.41 1009.91 1010.79 1011.34 1008.26 1004.83 1004.84 1004.95 1005.12 1005.38 1005.57 1005.73 1005.73 1006.27 1006.56 1006.28 1006.16 1005.93 1005.50 1005.13 1004.86 1004.05 1003.31 1003.36 1003.56 1003.93 1003.37 1004.10 1005.68 1006.84 1007.82 1008.95 1009.75 1010.57 1011.03
1018.36 1017.57 1016.64 1015.80 1014.75 1013.30 1012.32 1011.68 1010.84 1009.78 1009.54 1010.12 1010.76 1010.35 1006.42 1004.72 1004.47 1003.97 1004.44 1004.55 1005.46 1006.17 1006.21 1006.47 1006.67 1006.31 1006.13 1005.88 1005.30 1004.83 1003.75 1003.52 1003.11 1003.03 1003.24 1003.53 1002.88 1003.21 1004.76 1005.86 1006.92 1007.97 1008.77 1009.57 1010.40
1018.34 1017.57 1016.68 1015.58 1014.47 1012.98 1011.63 1010.94 1010.73 1010.50 1010.51 1010.30 1010.14 1009.89 1005.45 1003.53 1003.15 1003.44 1004.15 1004.37 1005.31 1005.86 1006.08 1005.94 1006.17 1005.81 1005.58 1005.13 1003.83 1004.00 1003.93 1003.36 1002.74 1002.67 1002.92 1002.93 1002.55 1003.18 1004.14 1005.14 1005.71 1006.90 1007.96 1008.61 1009.19
1018.35 1017.49 1016.68 1015.33 1014.38 1013.03 1011.55 1010.66 1010.83 1010.69 1010.02 1008.42 1007.64 1006.19 1004.31 1003.06 1002.97 1003.08 1003.29 1004.11 1004.70 1005.32 1004.92 1005.21 1005.09 1003.86 1004.38 1004.92 1004.66 1004.33 1003.81 1003.02 1002.51 1002.66 1002.53 1002.30 1002.27 1002.35 1003.54 1004.19 1004.93 1005.98 1007.03 1007.68 1007.93
1018.28 1017.46 1016.54 1015.41 1014.20 1013.10 1012.02 1012.04 1013.64 1014.10 1010.76 1007.33 1006.29 1005.73 1004.46 1004.10 1002.93 1002.87 1002.89 1003.04 1003.57 1003.62 1004.46 1004.93 1002.97 1003.74 1004.58 1004.96 1004.70 1004.32 1003.66 1002.89 1002.80 1002.76 1002.66 1002.06 1001.83 1002.18 1002.76 1003.01 1003.70 1004.83 1005.87 1006.43 1007.35
1018.32 1017.49 1016.40 1015.22 1014.12 1013.52 1013.58 1013.72 1014.18 1013.70 1011.86 1005.92 1004.70 1003.75 1003.12 1003.58 1002.71 1001.79 1001.97 1001.44 1001.83 1002.60 1002.66 1001.96 1002.13 1003.48 1004.03 1004.25 1004.22 1003.67 1002.93 1002.92 1002.82 1002.78 1002.39 1002.08 1001.40 1001.89 1002.29 1002.87 1003.53 1004.05 1004.87 1005.84 1006.14
1018.19 1017.45 1016.45 1015.46 1014.31 1014.36 1013.69 1014.00 1013.94 1013.62 1010.87 1005.30 1003.45 1001.94 1002.11 1002.07 1001.51 1000.97 1000.94 1000.70 1001.04 1000.86 1002.05 1002.13 1002.26 1002.51 1002.83 1002.91 1003.48 1002.86 1003.36 1003.44 1003.25 1003.13 1002.13 1002.15 1000.62 1001.18 1001.49 1002.01 1002.62 1003.32 1003.96 1004.28 1004.99
1018.05 1017.41 1016.52 1015.92 1015.70 1014.81 1014.00 1013.65 1013.38 1013.31 1008.83 1003.12 1002.07 1001.45 1001.39 1000.99 1000.24 999.98 1000.04 1000.03 999.53 999.62 1000.79 1000.01 1000.85 1001.60 1001.84 1001.34 1002.67 1002.25 1003.23 1003.27 1003.23 1002.82 1002.48 1001.85 1001.48 1000.00 1001.02 1001.14 1001.38 1001.89 1002.37 1003.12 1003.60
1017.83 1017.03 1016.52 1015.93 1015.59 1014.48 1013.97 1013.48 1012.80 1011.41 1005.91 1002.31 1001.55 1001.27 1001.37 1000.79 1000.00 999.86 999.60 999.67 999.45 999.86 999.78 999.71 1000.41 1000.82 1000.66 1001.44 1002.04 1002.56 1002.91 1003.21 1003.38 1002.85 1001.49 1000.85 1001.00 998.71 999.47 999.64 999.85 1000.55 1001.25 1001.99 1002.84
1017.48 1016.49 1016.18 1015.87 1015.04 1014.06 1013.78 1012.71 1011.53 1008.69 1004.50 1003.61 1002.58 1002.11 1001.56 1000.73 1000.05 999.63 999.05 998.59 997.81 998.57 998.74 999.50 999.68 999.83 1000.12 1000.77 1001.58 1001.79 1001.89 1002.30 1002.64 1001.74 999.30 1000.16 1000.19 997.93 998.06 998.39 998.16 998.75 999.61 1000.32 1001.19
1017.21 1016.24 1015.87 1015.40 1014.77 1014.34 1013.30 1011.97 1009.80 1007.48 1006.37 1005.14 1003.95 1002.78 1001.83 1001.41 1000.58 999.94 999.21 998.71 998.21 997.88 997.98 998.23 998.85 998.46 998.54 998.71 999.49 1000.25 1000.56 999.90 999.91 999.38 999.58 1000.09 997.54 996.48 997.17 997.50 997.43 997.76 998.00 999.07 1000.35
1017.10 1016.02 1015.62 1015.10 1014.57 1014.09 1013.10 1011.50 1009.77 1009.06 1008.74 1007.14 1004.97 1003.63 1002.80 1002.35 1001.95 1000.81 999.95 999.21 998.89 998.60 998.15 997.73 997.24 997.24 997.71 998.16 998.79 999.69 999.28 999.57 999.84 1000.47 999.65 997.98 997.02 996.91 996.59 996.24 996.57 996.73 997.39 998.03 998.68
1017.56 1016.82 1015.63 1015.13 1014.63 1013.83 1012.91 1012.03 1011.15 1010.86 1009.79 1008.26 1006.78 1005.62 1004.37 1003.61 1002.63 1001.77 1001.31 1002.20 1000.66 1000.59 1000.03 998.32 997.54 996.95 997.19 997.73 998.08 998.22 999.20 999.78 999.75 999.05 998.29 996.87 996.46 995.00 995.04 995.28 995.45 995.81 996.28 996.73 997.42
1018.04 1016.74 1015.35 1014.97 1014.46 1013.78 1013.49 1013.21 1012.33 1011.71 1010.99 1009.42 1008.13 1007.23 1006.04 1005.15 1004.15 1003.33 1003.38 1003.55 1002.87 1001.70 1000.84 999.64 998.25 997.77 997.20 996.24 996.32 997.99 997.79 998.11 998.41 998.17 996.95 996.19 994.71 994.56 994.49 994.29 994.36 994.45 994.95 995.46 996.27
1018.91 1017.20 1015.96 1015.11 1014.78 1015.32 1014.81 1014.57 1013.37 1012.21 1011.63 1010.52 1009.36 1008.32 1007.34 1006.47 1005.39 1004.70 1004.52 1004.57 1004.21 1003.05 1001.88 1001.31 999.63 997.91 996.82 996.30 996.27 996.51 996.72 997.35 997.20 997.32 996.86 995.87 994.42 994.13 993.97 993.89 993.87 993.80 993.97 994.59 995.24
1019.52 1018.53 1016.80 1015.97 1016.25 1016.34 1016.00 1015.05 1013.98 1013.08 1012.53 1011.66 1010.60 1009.84 1008.83 1007.67 1006.82 1006.20 1005.79 1005.75 1005.17 1003.96 1003.41 1002.37 1000.87 999.13 998.07 997.55 997.12 996.48 996.66 997.05 996.95 996.63 996.17 995.98 994.18 993.82 994.07 994.03 993.93 993.98 994.13 994.83 995.41
1019.72 1018.83 1017.65 1017.41 1017.70 1017.38 1016.65 1015.52 1014.43 1013.70 1013.42 1013.24 1012.49 1011.17 1010.08 1008.83 1008.16 1007.56 1006.99 1006.48 1006.16 1005.28 1004.68 1003.60 1002.15 1000.18 998.29 998.02 998.64 998.00 997.25 996.87 996.67 995.97 995.54 994.39 994.34 994.06 993.73 993.84 993.83 993.95 993.88 994.23 994.79
1019.93 1019.55 1019.48 1018.33 1017.78 1017.65 1016.97 1016.26 1015.10 1014.30 1014.15 1013.81 1013.45 1013.19 1012.48 1010.66 1009.25 1008.52 1008.23 1007.52 1006.90 1006.62 1005.57 1004.82 1003.36 1002.33 1001.32 1000.63 999.95 999.27 998.45 997.83 996.86 995.91 994.81 994.33 993.83 994.30 994.27 993.87 993.68 993.55 993.73 994.08 994.33
1019.97 1019.76 1019.72 1019.19 1018.63 1017.76 1016.82 1016.01 1015.58 1015.04 1015.03 1014.19 1013.95 1013.68 1013.21 1012.09 1011.17 1010.17 1009.57 1008.71 1007.93 1007.42 1006.73 1006.18 1004.68 1003.84 1002.25 1001.31 1000.42 999.26 998.49 997.81 997.26 996.59 995.94 994.99 993.90 994.45 994.16 994.30 993.81 993.78 993.64 993.75 993.79
1020.06 1019.79 1019.76 1018.97 1018.42 1017.73 1016.73 1016.17 1015.72 1015.47 1014.91 1014.58 1014.46 1014.03 1013.11 1012.41 1011.74 1010.98 1010.35 1009.67 1009.05 1008.76 1007.90 1007.11 1005.86 1004.71 1002.94 1001.97 1000.53 998.50 996.70 996.98 996.67 996.45 995.94 994.49 994.24 994.31 993.96 994.04 993.97 993.74 993.48 993.22 993.13
Wind_Speed
21 21 22 21 21 21 21 21 21 20 19 20 19 18 18 17 14 4 10 12 12 14 16 18 10 14 10 6 3 2 3 2 1 4 3 13 7 9 8 14 5 7 8 15 23
22 23 23 23 22 22 22 21 21 21 20 19 18 18 17 16 6 12 13 12 14 22 19 23 17 19 7 7 4 5 3 3 4 3 4 13 11 13 7 15 6 6 13 22 24
22 23 23 24 24 24 23 23 22 21 20 19 17 16 15 13 7 7 2 17 20 27 17 16 19 14 8 6 7 4 4 4 3 3 6 12 9 10 11 13 13 18 22 25 23
23 23 23 24 24 25 25 25 24 23 21 19 16 13 13 3 7 2 3 17 22 19 21 17 17 13 9 9 9 5 9 7 4 4 2 12 10 9 13 4 14 17 25 27 25
24 24 24 25 25 26 26 25 24 24 22 18 13 9 4 5 13 4 14 15 21 18 23 18 22 13 12 10 7 13 7 4 11 12 7 11 15 12 14 2 15 21 25 24 23
23 23 23 24 25 26 26 26 25 26 22 16 10 4 3 9 4 7 15 22 23 21 21 18 16 13 10 6 15 6 9 9 10 13 8 12 11 11 11 12 17 22 26 23 24
24 24 23 24 27 28 29 27 29 27 22 16 11 7 5 17 7 6 17 20 24 26 25 19 8 15 6 5 10 9 13 8 12 10 8 9 7 15 10 17 19 22 23 23 23
25 26 25 26 28 30 29 28 26 16 8 9 15 8 11 3 6 4 7 8 13 16 17 13 8 17 4 1 2 4 5 8 3 9 8 15 11 17 18 19 20 22 22 22 23
24 26 28 28 30 32 31 25 14 11 14 18 10 5 9 6 6 12 12 10 16 14 8 11 10 6 6 10 8 5 9 10 8 10 5 16 9 11 22 21 21 22 23 22 21
25 26 28 30 30 33 32 15 4 8 9 3 5 5 7 4 6 8 12 20 11 18 11 8 11 11 9 13 13 11 9 8 9 9 10 17 16 1 19 21 22 22 22 22 22
25 26 27 31 30 33 15 1 3 4 2 8 2 7 4 4 6 5 16 15 11 15 13 15 13 22 23 18 15 8 12 10 9 5 9 14 14 11 16 22 21 21 22 22 25
25 27 28 28 33 18 7 6 7 7 15 14 21 18 18 5 3 12 21 17 16 19 14 9 24 20 15 16 17 18 17 17 10 7 4 6 10 6 16 23 24 23 23 24 21
25 26 28 28 30 4 5 7 7 5 7 10 9 8 9 13 7 15 26 12 24 24 27 25 7 19 19 17 19 23 24 17 8 2 4 5 13 7 12 14 18 21 22 20 23
25 26 27 31 5 8 3 7 9 3 6 7 6 6 8 9 11 14 23 15 12 27 22 21 17 24 25 26 22 23 17 16 16 9 11 6 14 7 11 17 18 19 21 23 23
25 24 25 15 6 6 6 12 11 4 8 5 5 6 9 13 2 12 24 12 20 20 16 17 24 21 26 26 23 19 14 15 15 13 12 13 9 13 5 12 19 22 24 25 25
26 26 24 1 3 7 10 15 4 5 11 2 4 4 7 12 3 4 15 13 5 12 21 18 6 24 16 20 22 11 13 8 4 9 16 20 14 16 13 16 16 21 22 23 24
25 27 12 5 7 15 11 4 5 9 8 6 5 7 6 2 6 6 18 26 18 18 18 21 14 14 17 17 20 20 18 8 11 13 15 15 15 19 9 17 19 20 25 26 26
27 22 7 3 9 10 5 4 10 4 6 9 9 13 3 4 1 2 15 25 23 18 15 19 18 20 20 20 13 27 22 9 15 14 12 7 16 14 17 18 19 17 21 22 22
23 7 4 3 12 4 4 6 5 8 10 14 12 3 1 4 5 4 6 21 20 12 12 19 20 11 20 14 21 17 27 22 10 2 5 13 14 10 9 20 16 20 17 19 24
8 5 4 11 9 2 2 4 4 11 15 9 6 8 6 9 4 3 2 7 5 3 5 5 7 12 26 17 25 16 18 12 14 14 12 9 12 13 20 18 20 18 18 20 21
3 5 7 16 3 3 3 6 7 8 13 9 7 8 8 6 6 5 7 8 9 7 7 2 5 5 16 23 23 11 20 11 11 10 9 8 9 10 16 20 21 22 21 19 20
4 3 9 11 6 3 5 13 9 9 8 6 6 7 5 4 4 4 4 7 13 9 1 5 3 11 16 12 20 24 18 23 12 13 13 6 7 2 11 11 16 20 18 18 20
4 4 4 6 5 7 10 7 11 11 11 8 7 8 6 4 3 5 6 3 14 12 7 5 4 11 7 12 9 22 22 23 21 11 18 12 5 8 6 5 9 11 13 11 11
3 5 3 3 1 3 9 7 9 10 3 7 8 7 8 2 2 2 5 3 10 9 9 5 1 10 12 4 4 5 10 25 25 18 16 20 16 10 5 8 11 13 14 11 11
2 2 3 6 5 10 9 5 12 9 8 5 4 9 9 5 3 3 7 5 4 10 6 6 1 4 5 7 6 9 10 10 16 21 24 20 25 19 16 13 10 10 8 9 10
2 3 1 4 7 9 6 4 8 9 10 9 4 10 10 6 5 7 9 4 3 6 6 6 1 2 7 9 10 14 13 14 14 16 16 22 25 7 12 18 20 18 17 13 14
1 3 1 4 4 7 5 5 11 15 7 6 11 13 11 5 12 14 12 13 13 9 5 5 3 3 6 7 12 16 21 17 14 13 15 22 17 14 17 13 16 17 17 16 13
Wind_Direction
355 352 349 346 342 339 337 333 329 327 325 323 325 326 328 327 319 172 238 219 184 169 151 151 157 161 170 183 180 158 247 246 232 216 131 157 143 152 127 143 167 177 150 144 153
351 349 346 343 339 335 332 329 325 321 320 319 319 321 325 331 300 257 239 205 180 157 160 166 163 160 176 188 192 222 235 207 227 224 189 178 168 146 146 157 165 121 126 140 155
347 345 342 339 336 331 327 324 319 316 314 313 314 317 321 328 282 252 263 193 177 163 162 163 152 162 173 183 194 180 235 223 264 44 179 173 175 163 146 183 184 171 152 154 163
344 342 338 336 331 327 324 319 314 309 306 305 307 312 316 285 258 58 341 165 166 166 151 155 164 166 182 196 197 229 236 244 282 305 216 177 172 194 187 165 185 167 162 160 171
343 339 335 332 328 324 319 315 310 305 299 295 295 303 310 229 248 130 127 148 159 168 164 168 173 172 190 200 179 228 263 263 253 280 265 201 193 188 210 183 147 154 165 172 174
341 337 333 329 325 321 317 314 310 301 290 280 265 248 217 245 225 195 150 158 169 175 176 172 184 183 183 202 207 183 226 267 267 263 219 201 202 189 199 144 145 158 171 177 182
339 335 331 329 325 321 319 318 310 298 278 259 222 187 220 243 132 77 169 180 179 179 182 190 175 190 165 211 236 251 276 286 250 227 219 194 192 221 150 156 158 167 177 180 190
339 336 333 333 328 321 323 321 317 313 275 210 177 174 247 224 237 242 167 170 201 187 195 186 198 203 224 318 191 223 219 243 189 210 189 184 236 216 170 164 169 173 178 187 192
339 337 334 335 331 325 324 322 317 48 102 124 135 208 252 122 206 195 181 157 169 178 179 180 184 210 204 236 249 211 235 227 246 204 159 196 243 235 178 179 179 180 183 189 192
338 337 336 333 332 328 324 323 203 98 120 212 107 239 232 221 167 152 176 140 159 167 179 167 200 219 212 203 212 211 213 227 238 185 204 209 241 128 186 193 189 185 187 190 196
339 338 339 331 333 327 330 341 314 184 307 238 205 285 296 323 158 156 163 144 127 173 184 190 195 208 211 219 228 234 234 238 246 212 217 223 234 240 195 202 202 190 190 196 204
339 338 337 332 333 324 328 65 74 293 300 250 243 256 262 323 225 154 159 165 181 189 177 171 221 206 200 203 218 226 237 235 248 258 264 228 245 243 201 207 204 195 195 201 199
339 338 334 335 329 5 349 82 9 325 256 285 220 227 223 190 228 185 182 173 184 192 197 202 184 196 197 202 212 223 226 222 245 336 230 267 260 220 212 219 207 210 205 204 200
338 338 332 336 320 344 65 333 337 257 275 254 220 242 168 159 235 203 193 175 190 199 196 223 207 191 200 212 206 224 222 236 242 251 247 214 266 223 212 207 209 210 206 207 203
336 335 329 339 298 316 320 327 323 196 285 100 139 143 154 194 45 197 189 201 196 181 177 200 200 191 208 207 202 222 199 212 232 239 258 223 252 242 199 214 213 213 211 212 206
333 330 332 352 263 263 308 310 187 225 241 95 93 162 165 222 239 106 188 218 185 185 213 204 210 192 200 209 200 189 185 162 195 234 240 238 233 246 212 210 217 217 217 214 211
332 326 330 308 329 325 313 272 196 233 348 26 0 349 318 251 218 185 189 192 185 182 194 204 192 196 193 183 196 195 173 176 214 215 238 221 228 242 238 213 217 209 215 215 208
329 319 325 247 300 324 302 229 224 25 347 352 335 308 237 343 218 234 190 195 206 206 183 193 205 191 186 202 183 200 199 208 214 230 235 189 234 232 222 229 228 231 219 213 210
322 335 331 330 321 307 296 238 358 24 346 328 318 298 337 8 331 321 191 204 202 212 217 201 215 190 176 187 182 182 210 209 247 131 248 222 245 260 232 219 214 217 214 210 209
329 337 303 336 332 304 277 297 325 9 338 333 333 1 351 349 347 351 106 0 247 353 316 185 202 197 190 179 197 191 170 178 212 226 233 207 240 240 192 205 215 212 210 214 213
357 341 359 338 278 18 24 320 306 338 343 319 322 315 325 332 333 9 26 51 1 335 337 295 244 140 170 201 183 181 191 203 205 225 228 243 237 208 213 209 204 211 215 212 210
351 340 354 337 37 4 355 322 308 331 338 318 304 308 293 328 320 30 80 42 355 341 36 35 269 212 205 191 209 200 191 197 204 194 228 278 248 263 230 222 223 221 218 218 213
355 301 336 337 41 354 338 311 319 343 340 344 335 359 345 340 301 50 40 13 3 16 24 0 235 195 208 208 200 219 212 203 218 236 212 213 187 233 241 233 207 228 240 232 226
352 329 330 38 91 341 335 317 330 340 30 355 327 345 341 328 23 14 8 23 346 7 357 300 20 264 222 216 24 222 218 211 220 229 224 226 236 226 278 241 257 253 257 243 216
27 17 358 324 339 324 308 291 312 356 349 2 347 20 353 287 284 346 18 339 57 6 3 7 353 331 309 303 300 268 259 237 234 240 233 240 238 232 255 281 291 297 277 265 252
329 331 333 298 291 303 318 306 310 334 332 315 329 355 343 325 17 328 350 354 6 357 19 357 308 324 299 293 285 277 257 252 247 245 254 258 261 290 262 241 248 263 281 269 270
243 265 231 262 276 298 307 307 313 324 306 3 321 326 311 291 330 309 292 274 271 295 322 315 294 245 252 313 313 270 244 244 245 237 236 242 249 251 247 234 247 252 244 252 246